Flag for Iran Weather past 2 weeks in Mashhad, Iran

Now
36 °F

Light snow. Fog.


Feels Like: 27 °F
Forecast: 30 / 46 °F
Wind: 12 mph from Southeast

Location: Mashhad Airport

Current Time: Feb 27, 2015 at 12:07:31 PM

Latest Report: Feb 27, 2015 at 11:30 AM


Visibility: 2 mi

Pressure: 30.30 "Hg

Humidity: 93%

Dew point: 34 °F

Location of MashhadLocation

Historic Weather in Mashhad — Graph

°F

Mashhad temperature yesterday

Maximum temperature yesterday: 45 °F (at 11:30 AM)
Minimum temperature yesterday: 30 °F (at 4:30 AM)
Average temperature yesterday: 37 °F

Past Weeks' High & Low Weather Summary

 TemperatureHumidityPressure
High66 °F (Feb 12, 12:30 PM)100% (Feb 12, 6:00 PM)30.33 "Hg (Feb 12, 6:00 PM)
Low28 °F (Feb 25, 6:00 AM)39% (Feb 24, 11:30 AM)29.68 "Hg (Feb 21, 3:20 AM)
Average43 °F85%30.02 "Hg
* Reported Feb 12 10:30 AM — Feb 27 11:00 AM, Mashhad, Weather by CustomWeather, © 2015

Note: Actual official high and low records may vary slightly from our data, if they occured in-between our weather recording intervals... More about our weather records

Advertising

Mashhad weather history for previous 24 hours

 ConditionsComfort  
Time TempWeatherWind HumidityBarometerVisibility
11:00 AM
Fri, Feb 27
34 °FLight snow. Partly sunny.9 mph100%30.33 "Hg4 mi
10:30 AM34 °FSnow. Partly sunny.5 mph93%30.30 "Hg2 mi
10:00 AM36 °FLight snow. Cloudy.9 mph87%30.33 "HgN/A
9:30 AM36 °FLight snow. Partly sunny.12 mph87%30.30 "HgN/A
9:00 AM34 °FPartly sunny.12 mph93%30.30 "HgN/A
8:30 AM34 °FPartly sunny.12 mph93%30.30 "HgN/A
8:00 AM32 °FPartly sunny.14 mph100%30.30 "HgN/A
7:00 AM32 °FPartly sunny.7 mph100%30.27 "HgN/A
6:30 AM32 °FSnow flurries. Ice fog.7 mph100%30.27 "Hg3 mi
5:55 AM32 °FSnow flurries. Ice fog.7 mph100%30.27 "Hg2 mi
5:30 AM32 °FSnow flurries. Ice fog.9 mph100%30.27 "Hg2 mi
4:55 AM32 °FSnow flurries. Overcast.7 mph100%30.24 "Hg4 mi
4:30 AM32 °FLight snow. Ice fog.9 mph100%30.24 "Hg3 mi
4:00 AM32 °FLight snow. Ice fog.7 mph100%30.24 "Hg3 mi
3:20 AM32 °FPartly cloudy.7 mph100%30.24 "HgN/A
3:00 AM32 °FPartly cloudy.9 mph100%30.24 "Hg5 mi
2:30 AM32 °FSnow flurries. Ice fog.9 mph100%30.24 "Hg2 mi
2:00 AM34 °FSnow flurries. Fog.9 mph100%30.27 "Hg2 mi
1:30 AM34 °FSnow flurries. Overcast.9 mph100%30.27 "Hg4 mi
12:30 AM34 °FSnow flurries. Fog.12 mph100%30.27 "Hg4 mi
12:00 AM34 °FSnow flurries. Overcast.12 mph100%30.24 "Hg4 mi
11:30 PM
Thu, Feb 26
34 °FSnow flurries. Overcast.9 mph100%30.24 "Hg4 mi
11:00 PM34 °FPassing clouds.9 mph100%30.24 "Hg5 mi
10:30 PM34 °FSnow flurries. Overcast.9 mph100%30.24 "Hg4 mi
10:00 PM34 °FSnow flurries. Fog.14 mph100%30.24 "Hg3 mi
9:30 PM36 °FSnow flurries. Overcast.12 mph93%30.27 "Hg3 mi
9:00 PM36 °FSnow flurries. Overcast.7 mph93%30.24 "Hg4 mi
8:30 PM36 °FSnow flurries. Overcast.14 mph81%30.24 "Hg4 mi
8:00 PM37 °FPassing clouds.12 mph70%30.24 "HgN/A
7:30 PM37 °FPassing clouds.12 mph75%30.24 "HgN/A
7:00 PM37 °FPassing clouds.14 mph70%30.21 "HgN/A
6:30 PM37 °FPassing clouds.16 mph70%30.21 "HgN/A
6:00 PM37 °FPassing clouds.18 mph70%30.21 "HgN/A
5:30 PM37 °FPartly sunny.16 mph70%30.18 "HgN/A
5:00 PM39 °FPartly sunny.16 mph65%30.18 "HgN/A
4:30 PM39 °FPartly sunny.21 mph65%30.18 "HgN/A
4:00 PM41 °FPartly sunny.14 mph61%30.18 "HgN/A
3:30 PM41 °FPartly sunny.12 mph53%30.15 "HgN/A
3:00 PM41 °FPartly sunny.12 mph53%30.15 "HgN/A
2:30 PM41 °FPartly sunny.16 mph57%30.15 "HgN/A
2:00 PM43 °FPartly sunny.14 mph57%30.15 "HgN/A
1:30 PM43 °FPartly sunny.9 mph57%30.15 "HgN/A
1:00 PM43 °FBroken clouds.14 mph53%30.15 "HgN/A
12:30 PM43 °FPartly sunny.9 mph57%30.15 "HgN/A
12:00 PM45 °FScattered clouds.14 mph53%30.15 "HgN/A
Weather by CustomWeather, © 2015

See weather overviewHow to use our weather pages